User: anonymous   Login
Location: *
(48.8489°N, 2.3218°E)
Time: 20:03:02
(UTC+00:00)
Language:

Meteor 2-21 - Orbit

View from above orbital plane
View from above orbital plane
View from above satellite
View from above satellite

Ground track
Ground track

The orbit data is extracted from the following two-line orbital elements,

1 22782U 93055A   19294.47014884  .00000076  00000-0  55142-4 0  9998
2 22782  82.5496  64.0401 0022287 185.1887 222.6391 13.83821844320126
Epoch (UTC): 21 October 2019 11:17:00
Eccentricity: 0.0022287
inclination: 82.5496°
perigee height: 934 km
apogee height: 966 km
right ascension of ascending node: 64.0401°
argument of perigee: 185.1887°
revolutions per day: 13.83821844
mean anomaly at epoch: 222.6391°
orbit number at epoch: 32012

The dashed part of the orbit path shows where the satellite is in the earth's shadow,  

DLR